Погода Fujairah

Поиск расширенной информации на нашем сайте:

Полезная информация:

Новости сайта



02.01.2020
Опубликован Долгосрочный прогноз погоды по городам России и ближнего зарубежья на январь 2020 года.
Карты: Прогноз на январь и февраль 2020 года, Сравнение прогнозируемой аномалии приземной температуры воздуха на январь 2020 года по разным моделям.




Погода Fujairah - сегодня

Время (UTC), дата Ветер
(°,м/с) 
Видим.   Явления Облачность Т
(°С)
Тd
(°С)
f(%) Тe
(°С)
Pmin
(гПа)
dP
(гПа)
Po
(мм)
O2
(г/м3)
Тmin Tmax R s Состояние
почвы
21 28.05.20 320 (СЗ) 8000 м  мгла  ясно 
+37.5 +6.5 15 +38  1001.9    748  264           
00 29.05.20 030 (СВ) 6000 м  мгла  ясно 
+31.6 +26.4 74 +68  1002.2    748  262           
03 29.05.20 170 (Ю) 6000 м  мгла  4/0 верхняя 
[Cc]
+31.5 +26.3 74 +67  1003.5    749  263           
06 29.05.20 300 (СЗ) 10 км    5/0 верхняя 
[Ci fib]
+42.5 +9.6 14 +43  1003.4    749  260  +30.4         
09 29.05.20 060 (СВ) 10 км    5/0 верхняя 
[Ci fib]
+37.5 +26.5 54 +74  1002.3    748  257           
12 29.05.20 060 (СВ) 10 км    3/1 1050 м верхняя 
[Sc diur, vesp|Ci fib]
+37.3 +20 37 +56  1000.8    747  260           
15 29.05.20 110 (В) 10 км    ясно 
+36 +18.9 37 +52  1001.6    747  262           
18 29.05.20 180 (Ю) 8000 м  мгла  ясно 
+35.1 +19.1 39 +52  1002    748  263    +45.2       
21 29.05.20 060 (СВ) 7000 м  пыль  ясно 
+34.3 +24 55 +63  1001.7    747  261           
00 30.05.20 060 (СВ) 7000 м  мгла  ясно 
+32.4 +24 61 +61  1001.5    747  263           
03 30.05.20 100 (В) 6000 м  мгла  ясно 
+33.2 +25.2 63 +66  1003.4    749  262           
06 30.05.20 120 (ЮВ) 6000 м  мгла  ясно 
+36.5 +23.6 48 +64  1003.9    749  260  +31         
09 30.05.20 090 (В) 7000 м  мгла  ясно 
+37.4 +25.8 52 +72  1002.9    748  258           
12 30.05.20 090 (В) 6000 м    1/1 1050 м 
[Cu med, cong]
+36.1 +26.7 59 +73  1001.5    747  258           
15 30.05.20 080 (В) 6000 м  мгла  ясно 
+35.8 +24.5 52 +66  1002.2    748  260           
18 30.05.20 200 (Ю) 6000 м  мгла  ясно 
+35 +25.2 57 +68  1003.1    749  260    +39       
21 30.05.20 290 (З) 8000 м  мгла  ясно 
+38.1 +16.5 28 +50  1002.9    748  261           
15 31.05.20 300 (СЗ) 5000 м  мгла  ясно 
+39.1 +20 33 +58  1002    748  259           
18 31.05.20 150 (ЮВ) 6000 м  мгла  ясно 
+33.6 +28.1 73 +76  1004.1    749  260    +40.7       
21 31.05.20 110 (В) 7000 м  мгла  ясно 
+33.4 +26.7 68 +71  1003.6    749  261           
00 01.06.20 170 (Ю) 6000 м  мгла  ясно 
+32.2 +26.5 72 +69  1002.6    748  262           
03 01.06.20 100 (В) 7000 м  мгла  ясно 
+34.7 +26.1 61 +70  1004    749  260           
06 01.06.20 290 (З) 7000 м  мгла  1/1 750 м 
[Sc]
+42.2 +17.4 24 +55  1004.4    750  258  +32         
09 01.06.20 060 (СВ) 7000 м  мгла  1/1 900 м 
[Sc]
+38.5 +29.7 61 +86  1004.2    749  255           
12 01.06.20 050 (СВ) 5000 м  мгла  ясно 
+36.1 +27.5 61 +76  1002.7    748  258           
Время (UTC), дата Ветер
(°,м/с) 
Видим.   Явления Облачность Т
(°С)
Тd
(°С)
f(%) Тe
(°С)
Pmin
(гПа)
dP
(гПа)
Po
(мм)
O2
(г/м3)
Тmin Tmax R s Состояние
почвы

Для получения пояснительной информации подведите курсор к названию столбца.

ПОГОДА Fujairah - архив

Всё, что Вы хотите узнать о погоде Fujairah - удобно и подробно!

Выберите нужную дату (начиная с 1 января 2019* года) и нажмите кнопку "Найти".
Будут отображены архивные сводки погоды по пункту Fujairah, начиная с указанной даты.


Отображать данные в формате CSV (для использования в таблицах Excel)


Внимание! Наш архив погоды предназначен исключительно для личного некоммерческого использования в познавательных целях. Если Вам необходимы официальные справки о состоянии погоды (для производственных, юридических, коммерческих и т.п. целей), обращайтесь в органы Росгидромета.

*Примечание: данная дата относится к архиву по метеостанциям СССР (Россия, СНГ, Балтия).
Архив по метеостанциям Зарубежной Европы и Азии (кроме Китая) хранится 10 дней, по другим регионам земного шара (Китай, Африка, Америка, Австралия, Океания) - 1 день.

Fujairah - район местоположения метеостанции


Название, широта, долгота, высота метеостанции:
Fujairah 25.1°ш. 56.3°д. 28 м над ур. моря [United Arab emirates]

Дополнительная информация

В oтличие oт бoльшинства пoгoдных сайтoв мы публикуем пoдрoбную метеoинфoрмацию в детальнoм прoфессиoнальнoм фoрмате.

Характеристики температуры и влажнoсти вoздуха измеряются на высoте 2 м в тени вдали oт зданий и деревьев.
Скoрoсть ветра измеряется на высoте 10 м (на урoвне рoста челoвека скoрoсть ветра ниже в 1.5-2 раза). Если метеoстанция нахoдится в гoрoде или в лесу, тo скoрoсть ветра занижена на 2-4 м/с пo сравнению с oткрытым местoм. Скoрoсть ветра над акватoриями крупных рек и oзёр, а также на вершинах хoлмoв на 2-5 м/с выше, чем в oбычных услoвиях.
Атмoсфернoе давление в разных тoчках местнoсти мoжет значительнo oтличаться oт давления на метеoстанции, в зависимoсти oт услoвий рельефа (при пoдъёме на 10 м давление пoнижается примернo на 1 мм рт.ст.).